{"data":{"norad_id":60212,"intl_designator":"2024-126B","name":"TIANHUI 5D","alt_names":[],"object_type":"PAYLOAD","status":"ACTIVE","operator":null,"country":"PRC","launch_date":"2024-07-04","launch_site_code":"TAISC","launch_vehicle":null,"mission":null,"orbit_class":"UNKNOWN","rcs_meters":null,"size_class":null,"mass_kg":null,"dimensions":null,"purposes":[],"wikipedia_slug":null,"has_3d_model":false,"image_url":null,"decayed_at":null,"tle_current":{"epoch":"2026-09-22T13:34:55.739424Z","epoch_age_seconds":102900,"freshness":"FRESH","line1":"1 60212U 24126B   26265.56592291  .00000120  00000+0  19114-4 0  9998","line2":"2 60212  97.8208 271.7528 0002090  93.0502 267.0953 14.87579879120379","mean_motion":14.87579879,"eccentricity":0.000209,"inclination_deg":97.8208,"raan_deg":271.7528,"arg_perigee_deg":93.0502,"mean_anomaly_deg":267.0953,"bstar":1.9114e-5,"rev_number":12037,"period_min":96.801524430945,"perigee_km":604.04021253905,"apogee_km":606.95937271837,"semimajor_km":6983.6367926287,"source":"CELESTRAK","updated_at":"2026-09-23T09:00:20.460287Z"}}}